FW6490 Weather Reports


time (UTC)temp
F
wind
direction
speed
knots
gust
knots
rain 1hr
in
rain 24hr
in
rain mn
in
humidity
%
barometer
mb
20260508153440 57 350 0.9 4.3 0.00 0.00 0.00 87 1012.2
20260508152932 56 350 0.9 3.5 0.00 0.00 0.00 89 1012.2
20260508152433 55 350 0.9 3.5 0.00 0.00 0.00 89 1012.2
20260508151933 55 350 0.9 2.6 0.00 0.00 0.00 90 1012.2
20260508151429 54 350 1.7 4.3 0.00 0.00 0.00 90 1012.2
20260508150930 54 350 1.7 4.3 0.00 0.00 0.00 91 1012.2
20260508150427 54 350 1.7 4.3 0.00 0.00 0.00 91 1012.2
20260508145927 54 350 1.7 4.3 0.00 0.00 0.00 91 1012.2
20260508145423 54 350 1.7 4.3 0.00 0.00 0.00 91 1012.5
20260508144920 54 350 1.7 4.3 0.00 0.00 0.00 92 1012.5
20260508144420 53 351 1.7 4.3 0.00 0.00 0.00 92 1012.5
20260508143915 53 350 1.7 6.1 0.00 0.00 0.00 92 1012.5
20260508143414 53 355 1.7 6.1 0.00 0.00 0.00 92 1012.5
20260508142913 53 329 1.7 6.1 0.00 0.00 0.00 92 1012.5
20260508141911 53 327 2.6 6.1 0.00 0.00 0.00 92 1012.2
20260508141415 53 0 2.6 6.1 0.00 0.00 0.00 92 1012.2
20260508140412 53 327 1.7 4.3 0.00 0.00 0.00 93 1012.1
20260508135909 53 316 1.7 6.1 0.00 0.00 0.00 93 1012.1
20260508135405 53 319 2.6 6.1 0.00 0.00 0.00 93 1012.1
20260508134401 53 294 1.7 6.1 0.00 0.00 0.00 93 1012.1
20260508132854 53 279 1.7 6.1 0.00 0.00 0.00 94 1011.9
20260508131854 53 298 1.7 4.3 0.00 0.00 0.00 94 1011.9
20260508131350 53 298 1.7 4.3 0.00 0.00 0.00 94 1011.7
20260508130850 53 331 0.9 4.3 0.00 0.00 0.00 94 1011.7
20260508130348 53 332 1.7 4.3 0.00 0.00 0.00 94 1011.7
20260508125847 53 332 1.7 4.3 0.00 0.00 0.00 94 1011.6
20260508125346 53 329 1.7 4.3 0.00 0.00 0.00 94 1011.6
20260508124848 53 329 1.7 4.3 0.00 0.00 0.00 94 1011.6
20260508124347 53 329 1.7 5.2 0.00 0.00 0.00 94 1011.6
20260508123849 53 274 2.6 5.2 0.00 0.00 0.00 94 1011.6
20260508123343 53 289 2.6 5.2 0.00 0.00 0.00 94 1011.6
20260508122842 53 319 2.6 5.2 0.00 0.00 0.00 94 1011.6
20260508122340 53 321 1.7 5.2 0.00 0.00 0.00 94 1011.6
20260508121336 53 322 0.9 3.5 0.00 0.00 0.00 94 1011.5
20260508120834 53 320 1.7 3.5 0.00 0.00 0.00 94 1011.5
20260508115831 53 320 1.7 4.3 0.00 0.00 0.00 94 1011.5
20260508115323 53 321 0.9 3.5 0.00 0.00 0.00 94 1011.5
20260508114821 53 321 1.7 3.5 0.00 0.00 0.00 94 1011.5
20260508114320 53 302 1.7 3.5 0.00 0.00 0.00 94 1011.5
20260508113820 53 346 1.7 4.3 0.00 0.00 0.00 94 1011.5
20260508113316 53 346 1.7 4.3 0.00 0.00 0.00 94 1011.5
20260508112816 53 310 1.7 4.3 0.00 0.00 0.00 94 1011.3
20260508112309 53 307 1.7 4.3 0.00 0.00 0.00 94 1011.3
20260508111810 53 306 1.7 4.3 0.00 0.00 0.00 94 1011.3
20260508111305 53 305 1.7 4.3 0.00 0.00 0.00 94 1011.2
20260508110800 53 335 2.6 5.2 0.00 0.00 0.00 94 1011.2
20260508110304 53 336 2.6 6.1 0.00 0.00 0.00 94 1011.2
20260508105801 53 339 2.6 6.1 0.00 0.00 0.00 94 1011.2
20260508105258 53 332 2.6 6.1 0.00 0.00 0.00 94 1011.2
20260508104756 53 313 2.6 6.1 0.00 0.00 0.00 93 1011.2
20260508104255 54 327 2.6 5.2 0.00 0.00 0.00 93 1011.2
20260508103751 54 344 1.7 4.3 0.00 0.00 0.00 93 1011.2
20260508103246 54 338 0.9 4.3 0.00 0.00 0.00 93 1011.2
20260508102745 53 276 0.0 2.6 0.00 0.00 0.00 93 1011.3
20260508102247 53 275 0.9 3.5 0.00 0.00 0.00 93 1011.3
20260508101742 53 275 0.9 4.3 0.00 0.00 0.00 93 1011.3
20260508095232 54 300 0.9 3.5 0.00 0.00 0.00 93 1011.5
20260508094733 54 300 0.9 3.5 0.00 0.00 0.00 93 1011.5
20260508094231 54 301 0.9 3.5 0.00 0.00 0.00 93 1011.5
20260508093725 54 288 0.9 5.2 0.00 0.00 0.00 93 1011.5
20260508093227 54 288 1.7 5.2 0.00 0.00 0.00 93 1011.5
20260508092231 54 331 0.9 3.5 0.00 0.00 0.00 93 1011.5
20260508091726 54 329 1.7 4.3 0.00 0.00 0.00 93 1011.5
20260508091223 54 334 0.9 4.3 0.00 0.00 0.00 93 1011.6
20260508090721 54 321 0.0 3.5 0.00 0.00 0.00 93 1011.6
20260508090219 54 321 0.0 2.6 0.00 0.00 0.00 93 1011.6
20260508084720 54 321 0.9 2.6 0.00 0.00 0.00 93 1011.6
20260508084218 54 321 0.9 1.7 0.00 0.00 0.00 93 1011.5
20260508083718 54 321 0.9 3.5 0.00 0.00 0.00 92 1011.5
20260508082712 54 321 0.0 1.7 0.00 0.00 0.00 92 1011.6
20260508082211 54 321 0.9 2.6 0.00 0.00 0.00 92 1011.6
20260508081709 54 321 0.9 2.6 0.00 0.00 0.00 92 1011.6
20260508081210 54 321 0.9 3.5 0.00 0.00 0.00 92 1011.6
20260508080711 54 321 0.9 3.5 0.00 0.00 0.00 92 1011.6
20260508080209 54 321 0.9 2.6 0.00 0.00 0.00 92 1011.6
20260508075707 54 321 0.9 2.6 0.00 0.00 0.00 92 1011.6
20260508075210 54 321 0.9 2.6 0.00 0.00 0.00 92 1011.6
20260508074207 54 321 0.0 1.7 0.00 0.00 0.00 92 1011.6
20260508073702 54 321 0.9 3.5 0.00 0.00 0.00 92 1011.6
20260508072656 54 323 0.9 1.7 0.00 0.00 0.00 92 1011.6
20260508072157 54 323 0.9 3.5 0.00 0.00 0.00 92 1011.6
20260508071656 54 323 0.9 3.5 0.00 0.00 0.00 91 1011.6
20260508071156 54 323 0.0 1.7 0.00 0.00 0.00 92 1011.6
20260508070652 54 323 0.0 1.7 0.00 0.00 0.00 91 1011.6
20260508070156 54 323 0.0 1.7 0.00 0.00 0.00 91 1011.6
20260508065653 54 323 0.9 2.6 0.00 0.00 0.00 91 1011.6
20260508065146 55 323 0.9 2.6 0.00 0.00 0.00 91 1011.6
20260508064646 55 323 0.9 2.6 0.00 0.00 0.00 91 1011.6
20260508064140 55 323 0.9 2.6 0.00 0.00 0.00 91 1011.6
20260508063640 55 323 0.9 1.7 0.00 0.00 0.00 91 1011.6
20260508063139 55 323 0.9 3.5 0.00 0.00 0.00 91 1011.6
20260508062635 55 323 0.9 3.5 0.00 0.00 0.00 91 1011.6
20260508062142 55 331 0.9 3.5 0.00 0.00 0.00 90 1011.6
20260508061636 55 331 0.9 2.6 0.00 0.00 0.00 90 1011.6
20260508061130 55 331 0.0 2.6 0.00 0.00 0.00 90 1011.6
20260508060630 55 331 0.0 1.7 0.00 0.00 0.00 90 1011.6
20260508060127 55 331 0.0 1.7 0.00 0.00 0.00 90 1011.6
20260508055628 55 331 0.0 1.7 0.00 0.00 0.00 90 1011.6
20260508055128 56 331 0.0 1.7 0.00 0.00 0.00 89 1011.6
20260508054624 56 331 0.0 1.7 0.00 0.00 0.00 89 1011.6
20260508054124 56 331 0.0 0.9 0.00 0.00 0.00 90 1011.6
20260508053621 56 331 0.0 1.7 0.00 0.00 0.00 90 1011.6
20260508052117 56 331 0.0 2.6 0.00 0.00 0.00 89 1011.6
20260508051617 56 331 0.9 2.6 0.00 0.00 0.00 89 1011.6
20260508051114 56 331 0.9 2.6 0.00 0.00 0.00 89 1011.7
20260508050613 56 331 0.9 2.6 0.00 0.00 0.00 89 1011.7
20260508050112 56 331 0.9 2.6 0.00 0.00 0.00 89 1011.7
20260508045609 56 331 0.9 2.6 0.00 0.00 0.00 89 1011.6
20260508045109 56 331 0.0 1.7 0.00 0.00 0.00 89 1011.6
20260508044607 56 331 0.9 1.7 0.00 0.00 0.00 89 1011.6
20260508044104 56 331 0.9 1.7 0.00 0.00 0.00 89 1011.6
20260508043559 56 331 0.9 2.6 0.00 0.00 0.00 89 1011.6
20260508043105 56 331 0.9 2.6 0.00 0.00 0.00 89 1011.6
20260508042600 56 331 0.9 1.7 0.00 0.00 0.00 89 1011.5
20260508042055 56 331 0.9 2.6 0.00 0.00 0.00 89 1011.5
20260508041548 56 331 0.9 2.6 0.00 0.00 0.00 89 1011.5
20260508041044 56 331 0.9 2.6 0.00 0.00 0.00 89 1011.2
20260508040044 56 334 1.7 5.2 0.00 0.00 0.00 89 1011.2
20260508035541 56 322 1.7 5.2 0.00 0.00 0.00 89 1011.3
20260508035048 56 9 1.7 5.2 0.00 0.00 0.00 89 1011.3
20260508034537 56 279 1.7 5.2 0.00 0.00 0.00 89 1011.3
20260508034036 56 296 0.9 5.2 0.00 0.00 0.00 89 1011.1
20260508033531 56 294 0.9 6.1 0.00 0.00 0.00 89 1011.1
20260508032526 56 277 1.7 5.2 0.00 0.00 0.00 88 1011.0
20260508032025 56 321 2.6 6.1 0.00 0.00 0.00 88 1011.0
20260508031523 56 351 2.6 6.1 0.00 0.00 0.00 88 1011.0
20260508031023 56 343 2.6 7.8 0.00 0.00 0.00 88 1010.8
20260508030522 56 298 2.6 7.8 0.00 0.00 0.00 88 1010.8
20260508030020 56 281 3.5 7.0 0.00 0.00 0.00 87 1010.8
20260508025524 56 298 3.5 7.8 0.00 0.00 0.00 87 1010.7
20260508025026 57 323 4.3 7.8 0.00 0.00 0.00 87 1010.7
20260508024519 57 331 3.5 7.0 0.00 0.00 0.00 86 1010.7
20260508024014 57 344 3.5 7.0 0.00 0.00 0.00 86 1010.8
20260508023514 57 310 4.3 10.4 0.00 0.00 0.00 86 1010.8
20260508023014 57 324 4.3 10.4 0.00 0.00 0.00 85 1010.8
20260508022012 58 330 3.5 7.8 0.00 0.00 0.00 83 1010.7
20260508021008 59 348 3.5 7.8 0.00 0.00 0.00 81 1010.7
20260508020509 59 0 3.5 8.7 0.00 0.00 0.00 81 1010.7
20260508015502 60 326 3.5 8.7 0.00 0.00 0.00 80 1010.6
20260508015002 60 337 3.5 7.8 0.00 0.00 0.00 80 1010.6
20260508014500 61 345 3.5 7.8 0.00 0.00 0.00 79 1010.6
20260508014001 61 321 4.3 7.8 0.00 0.00 0.00 78 1010.6
20260508013455 61 0 4.3 8.7 0.00 0.00 0.00 78 1010.6
20260508012952 62 321 4.3 8.7 0.00 0.00 0.00 78 1010.6
20260508012452 62 309 5.2 13.9 0.00 0.00 0.00 77 1010.5
20260508011951 62 323 4.3 13.9 0.00 0.00 0.00 76 1010.5
20260508011449 63 297 4.3 9.6 0.00 0.00 0.00 75 1010.5
20260508010947 63 298 4.3 12.2 0.00 0.00 0.00 75 1010.2
20260508010451 63 311 4.3 12.2 0.00 0.00 0.00 75 1010.2
20260508005947 64 334 4.3 11.3 0.00 0.00 0.00 74 1010.2
20260508005446 64 336 4.3 8.7 0.00 0.00 0.00 74 1010.2
20260508004942 64 17 5.2 10.4 0.00 0.00 0.00 74 1010.2
20260508004444 64 0 5.2 10.4 0.00 0.00 0.00 73 1010.2
20260508003941 65 355 4.3 9.6 0.00 0.00 0.00 73 1010.2
20260508001937 65 311 6.1 12.2 0.00 0.00 0.00 73 1010.2
20260508001433 65 321 6.1 12.2 0.00 0.00 0.00 72 1010.2
20260508000930 65 340 6.1 12.2 0.00 0.00 0.00 72 1010.1
20260508000434 65 355 5.2 12.2 0.00 0.00 0.00 73 1010.1
20260507235935 66 315 5.2 13.0 0.00 0.00 0.00 72 1010.1
20260507235428 66 342 5.2 13.0 0.00 0.00 0.00 72 1010.1
20260507234925 66 277 4.3 11.3 0.00 0.00 0.00 72 1010.1
20260507234426 66 5 4.3 11.3 0.00 0.00 0.00 71 1010.1
20260507233921 66 323 4.3 11.3 0.00 0.00 0.00 71 1010.1
20260507233421 67 321 4.3 12.2 0.00 0.00 0.00 71 1010.1
20260507232918 66 11 4.3 12.2 0.00 0.00 0.00 73 1010.1
20260507232415 66 331 4.3 11.3 0.00 0.00 0.00 73 1010.2
20260507231916 65 325 5.2 12.2 0.00 0.00 0.00 75 1010.2
20260507231411 65 309 4.3 12.2 0.00 0.00 0.00 74 1010.2
20260507230911 66 325 5.2 12.2 0.00 0.00 0.00 73 1010.2
20260507230412 66 333 5.2 12.2 0.00 0.00 0.00 71 1010.2
20260507225408 67 313 4.3 9.6 0.00 0.00 0.00 72 1010.2
20260507224910 67 321 5.2 12.2 0.00 0.00 0.00 72 1010.2
20260507224406 67 338 5.2 12.2 0.00 0.00 0.00 71 1010.2
20260507223906 67 314 5.2 10.4 0.00 0.00 0.00 72 1010.2
20260507222900 67 292 5.2 10.4 0.00 0.00 0.00 72 1010.2
20260507222401 67 318 5.2 11.3 0.00 0.00 0.00 71 1010.2
20260507221356 68 317 5.2 11.3 0.00 0.00 0.00 72 1010.3
20260507215348 67 315 6.1 13.9 0.00 0.00 0.00 72 1010.7
20260507214852 67 314 7.0 12.2 0.00 0.00 0.00 73 1010.7
20260507214352 67 300 6.1 12.2 0.00 0.00 0.00 73 1010.8
20260507213846 67 309 6.1 12.2 0.00 0.00 0.00 72 1010.8
20260507213344 68 300 6.1 12.2 0.00 0.00 0.00 71 1010.8
20260507212343 68 320 6.1 13.0 0.00 0.00 0.00 72 1011.0
20260507211341 69 313 5.2 12.2 0.00 0.00 0.00 70 1011.0
20260507210841 68 337 5.2 12.2 0.00 0.00 0.00 71 1011.0
20260507210335 68 323 6.1 12.2 0.00 0.00 0.00 71 1011.0
20260507205834 68 335 6.1 12.2 0.00 0.00 0.00 71 1011.1
20260507205334 69 286 5.2 12.2 0.00 0.00 0.00 70 1011.1
20260507204831 68 311 5.2 11.3 0.00 0.00 0.00 72 1011.1
20260507202832 67 311 5.2 12.2 0.00 0.00 0.00 72 1011.2
20260507202329 67 308 5.2 12.2 0.00 0.00 0.00 72 1011.2
20260507201325 67 346 5.2 10.4 0.00 0.00 0.00 73 1011.2
20260507200326 67 315 5.2 10.4 0.00 0.00 0.00 73 1011.2
20260507194819 67 311 6.1 10.4 0.00 0.00 0.00 72 1011.2
20260507193817 67 348 5.2 10.4 0.00 0.00 0.00 71 1011.2
20260507193316 68 312 5.2 10.4 0.00 0.00 0.00 71 1011.2
20260507192819 68 300 4.3 10.4 0.00 0.00 0.00 72 1011.2
20260507192317 68 324 4.3 10.4 0.00 0.00 0.00 72 1011.2
20260507191812 68 331 5.2 10.4 0.00 0.00 0.00 72 1011.2
20260507191310 68 355 5.2 10.4 0.00 0.00 0.00 71 1011.2
20260507190808 68 328 4.3 9.6 0.00 0.00 0.00 71 1011.2
20260507190308 68 331 5.2 12.2 0.00 0.00 0.00 74 1011.2
20260507185809 67 11 5.2 12.2 0.00 0.00 0.00 72 1011.3
20260507185305 67 336 5.2 11.3 0.00 0.00 0.00 72 1011.3
20260507184804 68 11 5.2 9.6 0.00 0.00 0.00 71 1011.3
20260507184305 68 318 5.2 9.6 0.00 0.00 0.00 71 1011.3
20260507183801 68 330 5.2 8.7 0.00 0.00 0.00 72 1011.3
20260507183300 69 313 4.3 10.4 0.00 0.00 0.00 71 1011.3
20260507182758 70 326 4.3 10.4 0.00 0.00 0.00 70 1011.3
20260507182307 69 22 4.3 8.7 0.00 0.00 0.00 70 1011.3
20260507181802 70 311 4.3 8.7 0.00 0.00 0.00 69 1011.3
20260507181256 70 317 3.5 7.8 0.00 0.00 0.00 70 1011.3
20260507180754 70 336 2.6 7.0 0.00 0.00 0.00 70 1011.3
20260507180251 70 334 2.6 7.8 0.00 0.00 0.00 70 1011.3
20260507175753 70 338 3.5 7.8 0.00 0.00 0.00 71 1011.3
20260507175250 70 317 3.5 7.8 0.00 0.00 0.00 71 1011.3
20260507174248 70 336 3.5 7.8 0.00 0.00 0.00 72 1011.4
20260507173246 69 327 2.6 7.0 0.00 0.00 0.00 74 1011.4
20260507172750 69 325 2.6 7.0 0.00 0.00 0.00 73 1011.7
20260507172244 68 317 2.6 6.1 0.00 0.00 0.00 75 1011.7
20260507171744 67 329 2.6 6.1 0.00 0.00 0.00 76 1011.7
20260507171241 67 339 2.6 6.1 0.00 0.00 0.00 76 1011.7
20260507170731 66 20 2.6 6.1 0.00 0.00 0.00 79 1011.7
20260507170230 65 11 3.5 6.1 0.00 0.00 0.00 80 1011.7
20260507165724 64 355 3.5 7.0 0.00 0.00 0.00 81 1011.8
20260507165224 64 337 3.5 7.0 0.00 0.00 0.00 81 1011.8
20260507164722 63 12 2.6 7.0 0.00 0.00 0.00 84 1011.8
20260507164222 62 355 3.5 7.8 0.00 0.00 0.00 85 1011.8
20260507163719 61 342 3.5 7.8 0.00 0.00 0.00 85 1011.8
20260507163215 61 321 2.6 8.7 0.00 0.00 0.00 87 1011.8
20260507162714 60 5 2.6 7.8 0.00 0.00 0.00 88 1011.8
20260507162210 60 0 3.5 7.8 0.00 0.00 0.00 89 1011.8
20260507161713 59 355 3.5 7.0 0.00 0.00 0.00 89 1011.8
20260507161208 59 347 3.5 7.0 0.00 0.00 0.00 91 1011.8
20260507160703 59 344 3.5 7.0 0.00 0.00 0.00 92 1011.8
20260507160201 58 322 3.5 7.0 0.00 0.00 0.00 94 1011.8
20260507155700 57 331 3.5 8.7 0.00 0.00 0.00 95 1011.9
20260507155159 57 313 3.5 8.7 0.00 0.00 0.00 95 1011.8
20260507154654 56 331 3.5 7.8 0.00 0.00 0.00 95 1011.8
20260507154156 56 304 2.6 7.8 0.00 0.00 0.00 96 1011.7